| time (UTC) | temp F | wind direction | speed MPH | gust MPH | rain 1hr in | rain 24hr in | rain mn in | humidity % | barometer mb |
| 20260831024324 | 78 | 30 | 0.0 | 4.0 | 0.00 | 0.00 | 0.00 | 84 | 1019.2 |
| 20260831023316 | 77 | 22 | 0.0 | 1.0 | 0.00 | 0.00 | 0.00 | 84 | 1019.0 |
| 20260831022309 | 77 | 334 | 0.0 | 0.0 | 0.00 | 0.00 | 0.00 | 85 | 1019.0 |
| 20260831021353 | 78 | 334 | 0.0 | 0.0 | 0.00 | 0.00 | 0.00 | 84 | 1018.9 |
| 20260831020328 | 78 | 119 | 0.0 | 1.0 | 0.00 | 0.00 | 0.00 | 84 | 1018.9 |
| 20260831015328 | 77 | 134 | 0.0 | 2.0 | 0.00 | 0.00 | 0.00 | 84 | 1019.0 |
| 20260831014331 | 77 | 21 | 0.0 | 1.0 | 0.00 | 0.00 | 0.00 | 84 | 1019.1 |
| 20260831013312 | 77 | 129 | 0.0 | 0.0 | 0.00 | 0.00 | 0.00 | 85 | 1019.2 |
| 20260831012313 | 77 | 129 | 0.0 | 0.0 | 0.00 | 0.00 | 0.00 | 85 | 1019.1 |
| 20260831011335 | 77 | 128 | 0.0 | 0.0 | 0.00 | 0.00 | 0.00 | 84 | 1019.1 |
| 20260831010313 | 77 | 128 | 0.0 | 0.0 | 0.00 | 0.00 | 0.00 | 84 | 1019.0 |
| 20260831005316 | 77 | 129 | 0.0 | 0.0 | 0.00 | 0.00 | 0.00 | 83 | 1019.1 |
| 20260831004339 | 78 | 129 | 0.0 | 0.0 | 0.00 | 0.00 | 0.00 | 83 | 1019.0 |
| 20260831003343 | 78 | 129 | 0.0 | 0.0 | 0.00 | 0.00 | 0.00 | 82 | 1018.8 |
| 20260831002319 | 78 | 129 | 0.0 | 0.0 | 0.00 | 0.00 | 0.00 | 82 | 1018.7 |
| 20260831001318 | 78 | 144 | 0.0 | 0.0 | 0.00 | 0.00 | 0.00 | 81 | 1018.6 |
| 20260831000328 | 78 | 144 | 0.0 | 0.0 | 0.00 | 0.00 | 0.00 | 81 | 1018.4 |
| 20260830235326 | 78 | 143 | 0.0 | 0.0 | 0.00 | 0.00 | 0.00 | 80 | 1018.5 |
| 20260830234342 | 79 | 144 | 0.0 | 0.0 | 0.00 | 0.00 | 0.00 | 79 | 1018.6 |
| 20260830233319 | 79 | 144 | 0.0 | 0.0 | 0.00 | 0.00 | 0.00 | 79 | 1018.6 |
| 20260830232317 | 80 | 144 | 0.0 | 0.0 | 0.00 | 0.00 | 0.00 | 77 | 1018.7 |
| 20260830231333 | 80 | 88 | 0.0 | 0.0 | 0.00 | 0.00 | 0.00 | 76 | 1018.7 |
| 20260830230330 | 81 | 85 | 0.0 | 2.0 | 0.00 | 0.00 | 0.00 | 75 | 1018.7 |
| 20260830225323 | 81 | 278 | 0.0 | 1.0 | 0.00 | 0.00 | 0.00 | 74 | 1018.7 |
| 20260830224318 | 82 | 284 | 0.0 | 2.0 | 0.00 | 0.00 | 0.00 | 73 | 1018.6 |
| 20260830223356 | 82 | 252 | 0.0 | 3.0 | 0.00 | 0.00 | 0.00 | 72 | 1018.6 |
| 20260830222333 | 83 | 122 | 0.0 | 3.0 | 0.00 | 0.00 | 0.00 | 71 | 1018.6 |
| 20260830221320 | 83 | 273 | 1.0 | 3.0 | 0.00 | 0.00 | 0.00 | 70 | 1018.5 |
| 20260830220317 | 83 | 124 | 0.0 | 2.0 | 0.00 | 0.00 | 0.00 | 69 | 1018.4 |
| 20260830215335 | 84 | 141 | 1.0 | 4.0 | 0.00 | 0.00 | 0.00 | 67 | 1018.3 |
| 20260830214309 | 85 | 236 | 1.0 | 3.0 | 0.00 | 0.00 | 0.00 | 65 | 1018.4 |
| 20260830213318 | 85 | 47 | 0.0 | 5.0 | 0.00 | 0.00 | 0.00 | 66 | 1018.5 |
| 20260830212318 | 86 | 198 | 0.0 | 4.0 | 0.00 | 0.00 | 0.00 | 63 | 1018.4 |
| 20260830211314 | 86 | 49 | 1.0 | 4.0 | 0.00 | 0.00 | 0.00 | 63 | 1018.4 |
| 20260830210312 | 86 | 163 | 1.0 | 5.0 | 0.00 | 0.00 | 0.00 | 64 | 1018.4 |
| 20260830205327 | 85 | 108 | 0.0 | 3.0 | 0.00 | 0.00 | 0.00 | 64 | 1018.5 |
| 20260830204322 | 86 | 293 | 0.0 | 4.0 | 0.00 | 0.00 | 0.00 | 63 | 1018.5 |
| 20260830203333 | 86 | 130 | 0.0 | 5.0 | 0.00 | 0.00 | 0.00 | 62 | 1018.5 |
| 20260830202333 | 87 | 47 | 2.0 | 6.0 | 0.00 | 0.00 | 0.00 | 62 | 1018.5 |
| 20260830201330 | 86 | 75 | 0.0 | 3.0 | 0.00 | 0.00 | 0.00 | 65 | 1018.7 |
| 20260830200319 | 84 | 241 | 1.0 | 5.0 | 0.00 | 0.00 | 0.00 | 69 | 1018.8 |
| 20260830195341 | 82 | 91 | 0.0 | 2.0 | 0.00 | 0.00 | 0.00 | 73 | 1019.1 |
| 20260830194311 | 82 | 27 | 0.0 | 0.0 | 0.00 | 0.00 | 0.00 | 72 | 1019.2 |
| 20260830193328 | 82 | 307 | 0.0 | 1.0 | 0.00 | 0.00 | 0.00 | 69 | 1019.2 |
| 20260830192327 | 84 | 155 | 0.0 | 5.0 | 0.00 | 0.00 | 0.00 | 66 | 1019.2 |
| 20260830191320 | 86 | 160 | 1.0 | 9.0 | 0.00 | 0.00 | 0.00 | 61 | 1019.4 |
| 20260830190310 | 87 | 277 | 1.0 | 5.0 | 0.00 | 0.00 | 0.00 | 62 | 1019.4 |
| 20260830185355 | 86 | 130 | 0.0 | 4.0 | 0.00 | 0.00 | 0.00 | 63 | 1019.6 |
| 20260830184328 | 85 | 37 | 0.0 | 8.0 | 0.00 | 0.00 | 0.00 | 63 | 1019.8 |
| 20260830183317 | 85 | 252 | 1.0 | 5.0 | 0.00 | 0.00 | 0.00 | 64 | 1019.9 |
| 20260830182313 | 84 | 318 | 2.0 | 8.0 | 0.00 | 0.00 | 0.00 | 65 | 1020.0 |
| 20260830181309 | 84 | 129 | 0.0 | 1.0 | 0.00 | 0.00 | 0.00 | 67 | 1020.1 |
| 20260830180325 | 84 | 304 | 1.0 | 4.0 | 0.00 | 0.00 | 0.00 | 65 | 1020.3 |
| 20260830175314 | 85 | 16 | 0.0 | 7.0 | 0.00 | 0.00 | 0.00 | 65 | 1020.3 |
| 20260830174309 | 85 | 82 | 1.0 | 4.0 | 0.00 | 0.00 | 0.00 | 65 | 1020.5 |
| 20260830173309 | 83 | 124 | 1.0 | 6.0 | 0.00 | 0.00 | 0.00 | 69 | 1020.5 |
| 20260830172326 | 82 | 154 | 1.0 | 5.0 | 0.00 | 0.00 | 0.00 | 70 | 1020.6 |
| 20260830171323 | 82 | 10 | 0.0 | 5.0 | 0.00 | 0.00 | 0.00 | 70 | 1021.0 |
| 20260830170315 | 83 | 46 | 1.0 | 7.0 | 0.00 | 0.00 | 0.00 | 69 | 1021.1 |
| 20260830165310 | 83 | 307 | 0.0 | 5.0 | 0.00 | 0.00 | 0.00 | 68 | 1021.1 |
| 20260830164325 | 82 | 114 | 1.0 | 9.0 | 0.00 | 0.00 | 0.00 | 70 | 1021.0 |
| 20260830163336 | 81 | 102 | 0.0 | 5.0 | 0.00 | 0.00 | 0.00 | 72 | 1021.0 |
| 20260830162320 | 81 | 41 | 2.0 | 8.0 | 0.00 | 0.00 | 0.00 | 72 | 1021.3 |
| 20260830161322 | 81 | 277 | 1.0 | 6.0 | 0.00 | 0.00 | 0.00 | 73 | 1021.4 |
| 20260830160318 | 81 | 131 | 0.0 | 4.0 | 0.00 | 0.00 | 0.00 | 75 | 1021.5 |
| 20260830155346 | 81 | 46 | 2.0 | 5.0 | 0.00 | 0.00 | 0.00 | 73 | 1021.5 |
| 20260830154324 | 81 | 57 | 1.0 | 5.0 | 0.00 | 0.00 | 0.00 | 73 | 1021.6 |
| 20260830153319 | 81 | 89 | 1.0 | 7.0 | 0.00 | 0.00 | 0.00 | 74 | 1021.7 |
| 20260830152319 | 80 | 323 | 1.0 | 8.0 | 0.00 | 0.00 | 0.00 | 74 | 1021.7 |
| 20260830151317 | 80 | 93 | 0.0 | 5.0 | 0.00 | 0.00 | 0.00 | 77 | 1021.7 |
| 20260830150356 | 78 | 333 | 1.0 | 3.0 | 0.00 | 0.00 | 0.00 | 78 | 1021.7 |
| 20260830145309 | 78 | 301 | 2.0 | 6.0 | 0.00 | 0.00 | 0.00 | 78 | 1021.7 |
| 20260830144326 | 78 | 46 | 1.0 | 6.0 | 0.00 | 0.00 | 0.00 | 78 | 1021.8 |
| 20260830143346 | 76 | 122 | 3.0 | 6.0 | 0.00 | 0.00 | 0.00 | 80 | 1021.8 |
| 20260830142327 | 75 | 56 | 0.0 | 5.0 | 0.00 | 0.00 | 0.00 | 83 | 1022.0 |
| 20260830141325 | 74 | 122 | 1.0 | 5.0 | 0.00 | 0.00 | 0.00 | 84 | 1022.2 |
| 20260830140321 | 72 | 133 | 1.0 | 3.0 | 0.00 | 0.00 | 0.00 | 85 | 1022.3 |
| 20260830135317 | 71 | 124 | 1.0 | 4.0 | 0.00 | 0.00 | 0.00 | 87 | 1022.3 |
| 20260830134312 | 71 | 141 | 0.0 | 2.0 | 0.00 | 0.00 | 0.00 | 87 | 1022.5 |
| 20260830133351 | 70 | 117 | 0.0 | 1.0 | 0.00 | 0.00 | 0.00 | 87 | 1022.5 |
| 20260830132327 | 70 | 27 | 1.0 | 6.0 | 0.00 | 0.00 | 0.00 | 88 | 1022.6 |
| 20260830131318 | 69 | 132 | 1.0 | 4.0 | 0.00 | 0.00 | 0.00 | 88 | 1022.8 |
| 20260830130318 | 69 | 327 | 0.0 | 3.0 | 0.00 | 0.00 | 0.00 | 88 | 1022.9 |
| 20260830125312 | 69 | 105 | 0.0 | 2.0 | 0.00 | 0.00 | 0.00 | 89 | 1022.9 |
| 20260830124328 | 68 | 322 | 0.0 | 1.0 | 0.00 | 0.00 | 0.00 | 91 | 1023.0 |
| 20260830123319 | 67 | 131 | 0.0 | 1.0 | 0.00 | 0.00 | 0.00 | 92 | 1023.0 |
| 20260830122313 | 66 | 321 | 0.0 | 2.0 | 0.00 | 0.00 | 0.00 | 94 | 1023.0 |
| 20260830121309 | 65 | 118 | 0.0 | 1.0 | 0.00 | 0.00 | 0.00 | 95 | 1022.9 |
| 20260830120319 | 64 | 341 | 0.0 | 0.0 | 0.00 | 0.00 | 0.00 | 96 | 1023.1 |
| 20260830115315 | 64 | 341 | 0.0 | 1.0 | 0.00 | 0.00 | 0.00 | 96 | 1022.9 |
| 20260830114308 | 63 | 58 | 0.0 | 0.0 | 0.00 | 0.00 | 0.00 | 96 | 1022.9 |
| 20260830113325 | 62 | 58 | 0.0 | 0.0 | 0.00 | 0.00 | 0.00 | 96 | 1022.9 |
| 20260830112343 | 61 | 58 | 0.0 | 0.0 | 0.00 | 0.00 | 0.00 | 96 | 1022.9 |
| 20260830111340 | 61 | 58 | 0.0 | 0.0 | 0.00 | 0.00 | 0.00 | 96 | 1023.1 |
| 20260830110321 | 61 | 58 | 0.0 | 0.0 | 0.00 | 0.00 | 0.00 | 96 | 1023.1 |
| 20260830105341 | 60 | 58 | 0.0 | 0.0 | 0.00 | 0.00 | 0.00 | 96 | 1023.1 |
| 20260830104337 | 60 | 58 | 0.0 | 0.0 | 0.00 | 0.00 | 0.00 | 96 | 1023.0 |
| 20260830103334 | 60 | 58 | 0.0 | 0.0 | 0.00 | 0.00 | 0.00 | 97 | 1023.0 |
| 20260830102332 | 59 | 58 | 0.0 | 0.0 | 0.00 | 0.00 | 0.00 | 96 | 1022.8 |
| 20260830101325 | 58 | 58 | 0.0 | 0.0 | 0.00 | 0.00 | 0.00 | 96 | 1022.9 |
| 20260830100345 | 58 | 58 | 0.0 | 0.0 | 0.00 | 0.00 | 0.00 | 96 | 1023.0 |
| 20260830095325 | 58 | 58 | 0.0 | 0.0 | 0.00 | 0.00 | 0.00 | 96 | 1023.0 |
| 20260830094323 | 58 | 58 | 0.0 | 0.0 | 0.00 | 0.00 | 0.00 | 95 | 1023.0 |
| 20260830093317 | 58 | 58 | 0.0 | 0.0 | 0.00 | 0.00 | 0.00 | 95 | 1022.8 |
| 20260830092314 | 58 | 58 | 0.0 | 0.0 | 0.00 | 0.00 | 0.00 | 95 | 1022.9 |
| 20260830091309 | 58 | 58 | 0.0 | 0.0 | 0.00 | 0.00 | 0.00 | 95 | 1022.8 |
| 20260830090328 | 58 | 58 | 0.0 | 0.0 | 0.00 | 0.00 | 0.00 | 95 | 1022.8 |
| 20260830085344 | 58 | 58 | 0.0 | 0.0 | 0.00 | 0.00 | 0.00 | 95 | 1022.8 |
| 20260830084320 | 58 | 58 | 0.0 | 0.0 | 0.00 | 0.00 | 0.00 | 95 | 1023.0 |
| 20260830083315 | 58 | 58 | 0.0 | 0.0 | 0.00 | 0.00 | 0.00 | 95 | 1023.1 |
| 20260830082311 | 57 | 58 | 0.0 | 0.0 | 0.00 | 0.00 | 0.00 | 95 | 1022.8 |
| 20260830081326 | 58 | 58 | 0.0 | 0.0 | 0.00 | 0.00 | 0.00 | 95 | 1023.2 |
| 20260830080327 | 58 | 58 | 0.0 | 0.0 | 0.00 | 0.00 | 0.00 | 95 | 1023.3 |
| 20260830075327 | 58 | 58 | 0.0 | 0.0 | 0.00 | 0.00 | 0.00 | 95 | 1023.3 |
| 20260830074320 | 58 | 58 | 0.0 | 0.0 | 0.00 | 0.00 | 0.00 | 95 | 1023.3 |
| 20260830073317 | 58 | 58 | 0.0 | 0.0 | 0.00 | 0.00 | 0.00 | 95 | 1023.4 |
| 20260830072337 | 58 | 58 | 0.0 | 0.0 | 0.00 | 0.00 | 0.00 | 95 | 1023.3 |
| 20260830071319 | 58 | 58 | 0.0 | 0.0 | 0.00 | 0.00 | 0.00 | 95 | 1023.3 |
| 20260830070333 | 57 | 58 | 0.0 | 0.0 | 0.00 | 0.00 | 0.00 | 95 | 1023.4 |
| 20260830065334 | 57 | 58 | 0.0 | 0.0 | 0.00 | 0.00 | 0.00 | 94 | 1023.4 |
| 20260830064324 | 58 | 58 | 0.0 | 0.0 | 0.00 | 0.00 | 0.00 | 94 | 1023.4 |
| 20260830063324 | 58 | 58 | 0.0 | 0.0 | 0.00 | 0.00 | 0.00 | 94 | 1023.5 |
| 20260830062318 | 58 | 58 | 0.0 | 0.0 | 0.00 | 0.00 | 0.00 | 94 | 1023.4 |
| 20260830061317 | 58 | 58 | 0.0 | 0.0 | 0.00 | 0.00 | 0.00 | 94 | 1023.4 |
| 20260830060315 | 58 | 58 | 0.0 | 0.0 | 0.00 | 0.00 | 0.00 | 94 | 1023.5 |
| 20260830055317 | 58 | 58 | 0.0 | 0.0 | 0.00 | 0.00 | 0.00 | 94 | 1023.4 |
| 20260830054337 | 58 | 58 | 0.0 | 0.0 | 0.00 | 0.00 | 0.00 | 93 | 1023.6 |
| 20260830053356 | 59 | 58 | 0.0 | 0.0 | 0.00 | 0.00 | 0.00 | 93 | 1023.6 |
| 20260830052332 | 59 | 58 | 0.0 | 0.0 | 0.00 | 0.00 | 0.00 | 93 | 1023.5 |
| 20260830051349 | 59 | 58 | 0.0 | 0.0 | 0.00 | 0.00 | 0.00 | 93 | 1023.5 |
| 20260830050322 | 59 | 58 | 0.0 | 0.0 | 0.00 | 0.00 | 0.00 | 93 | 1023.4 |
| 20260830045345 | 59 | 58 | 0.0 | 0.0 | 0.00 | 0.00 | 0.00 | 92 | 1023.4 |
| 20260830044323 | 59 | 58 | 0.0 | 0.0 | 0.00 | 0.00 | 0.00 | 92 | 1023.4 |
| 20260830043316 | 60 | 58 | 0.0 | 0.0 | 0.00 | 0.00 | 0.00 | 92 | 1023.3 |
| 20260830042315 | 60 | 58 | 0.0 | 0.0 | 0.00 | 0.00 | 0.00 | 92 | 1023.3 |
| 20260830041313 | 60 | 58 | 0.0 | 0.0 | 0.00 | 0.00 | 0.00 | 91 | 1023.2 |
| 20260830040326 | 60 | 58 | 0.0 | 0.0 | 0.00 | 0.00 | 0.00 | 91 | 1023.2 |
| 20260830035326 | 60 | 58 | 0.0 | 0.0 | 0.00 | 0.00 | 0.00 | 91 | 1023.1 |
| 20260830034327 | 60 | 58 | 0.0 | 0.0 | 0.00 | 0.00 | 0.00 | 91 | 1023.0 |
| 20260830033325 | 60 | 58 | 0.0 | 0.0 | 0.00 | 0.00 | 0.00 | 90 | 1023.0 |
| 20260830032329 | 60 | 58 | 0.0 | 0.0 | 0.00 | 0.00 | 0.00 | 90 | 1023.0 |
| 20260830031329 | 61 | 58 | 0.0 | 0.0 | 0.00 | 0.00 | 0.00 | 89 | 1023.0 |
| 20260830030325 | 61 | 58 | 0.0 | 0.0 | 0.00 | 0.00 | 0.00 | 88 | 1023.0 |
| 20260830025340 | 61 | 58 | 0.0 | 0.0 | 0.00 | 0.00 | 0.00 | 88 | 1022.9 |